sat.trackr.live / text

‹ back to catalog

KX-09

NORAD 44520 · 2019-058B

PAYLOAD ACTIVE UNKNOWN

§ Identity

Operator
Country
PRC
Launch date
2019-08-30
Launch site
JSC
Launch vehicle
Mass (kg)
RCS (m²)

External: N2YO · Heavens-Above · Gunter

§ Orbital elements

Epoch: 2026-09-20T04:22:45.772608Z

Period
96.20 min
Inclination
97.7779°
Eccentricity
0.0011037
Mean motion
14.96852095 rev/d
Perigee alt
569.0 km
Apogee alt
584.3 km
Semi-major
6,954.8 km
B*
9.8513e-5
RAAN
275.9594°
Arg perigee
34.6881°
Mean anomaly
325.5058°
Rev number
38,424

§ Raw data

KX-091 44520U 19058B   26263.18247422  .00001071  00000+0  98513-4 0  99952 44520  97.7779 275.9594 0011037  34.6881 325.5058 14.96852095384244

JSON: /api/v1/satellites/44520 · /tle

For live sub-satellite position, see the globe view (requires WebGL).

§ Visibility from observer

Set your observer location to see the next 7 days of passes ≥ 10°. The values pass through the URL so the page stays shareable.

No JS? Fill the form by hand. The geolocation button needs JavaScript.